TimeBST,TemperatureF,Dew PointF,Humidity,Sea Level PressureIn,VisibilityMPH,Wind Direction,Wind SpeedMPH,Gust SpeedMPH,PrecipitationIn,Events,Conditions,WindDirDegrees,DateUTC
12:50 AM,51,46,76,,,SE,11.5,,,,,130,2012-10-10 23:50:00
3:50 AM,51,46,77,,,SE,12.7,,,,,130,2012-10-11 02:50:00
5:50 AM,50.0,46.4,87,29.68,6.2,ESE,11.5,-,N/A,,Mostly Cloudy,120,2012-10-11 04:50:00
6:20 AM,50.0,46.4,87,29.68,6.2,ESE,10.4,-,N/A,,Mostly Cloudy,120,2012-10-11 05:20:00
6:50 AM,51,44,70,,,ESE,13.8,,,,,110,2012-10-11 05:50:00
6:50 AM,50.0,44.6,82,29.68,6.2,ESE,12.7,-,N/A,,Mostly Cloudy,110,2012-10-11 05:50:00
7:20 AM,50.0,44.6,82,29.65,6.2,ESE,12.7,-,N/A,,Mostly Cloudy,120,2012-10-11 06:20:00
7:50 AM,51.8,46.4,82,29.65,6.2,ESE,13.8,-,N/A,,Mostly Cloudy,120,2012-10-11 06:50:00
8:20 AM,51.8,46.4,82,29.65,6.2,ESE,12.7,-,N/A,,Partly Cloudy,120,2012-10-11 07:20:00
8:50 AM,51.8,46.4,82,29.65,6.2,ESE,13.8,-,N/A,,Light Drizzle,120,2012-10-11 07:50:00
9:20 AM,51.8,48.2,88,29.62,6.2,ESE,13.8,-,N/A,Rain,Light Rain Showers,110,2012-10-11 08:20:00
9:50 AM,51,49,89,,,ESE,12.7,,,,,110,2012-10-11 08:50:00
9:50 AM,51.8,50.0,94,29.62,5.0,ESE,11.5,-,N/A,Rain,Light Rain Showers,120,2012-10-11 08:50:00
10:20 AM,51.8,50.0,94,29.62,3.7,SE,15.0,-,N/A,Rain,Rain,130,2012-10-11 09:20:00
10:50 AM,51.8,50.0,94,29.62,3.7,ESE,15.0,-,N/A,Rain,Rain,120,2012-10-11 09:50:00
11:20 AM,51.8,51.8,100,29.62,3.1,ESE,16.1,-,N/A,Rain,Rain,120,2012-10-11 10:20:00
11:50 AM,51.8,50.0,94,29.59,3.1,East,13.8,-,N/A,Rain,Rain,100,2012-10-11 10:50:00
12:20 PM,51.8,51.8,100,29.59,3.1,ESE,13.8,-,N/A,Rain,Rain,110,2012-10-11 11:20:00
12:50 PM,52,50,92,,,ESE,16.1,,,,,110,2012-10-11 11:50:00
12:50 PM,51.8,51.8,100,29.56,3.1,ESE,13.8,-,N/A,Rain,Light Rain,110,2012-10-11 11:50:00
1:20 PM,51.8,51.8,100,29.56,3.1,SE,16.1,-,N/A,Rain,Light Rain,130,2012-10-11 12:20:00
1:50 PM,51.8,51.8,100,29.53,3.1,SE,16.1,-,N/A,Rain,Light Rain,130,2012-10-11 12:50:00
2:20 PM,53.6,51.8,94,29.53,3.7,SE,15.0,-,N/A,Rain,Light Rain,130,2012-10-11 13:20:00
2:50 PM,53.6,51.8,94,29.53,3.7,ESE,15.0,-,N/A,Rain,Light Rain,120,2012-10-11 13:50:00
3:20 PM,53.6,51.8,94,29.53,2.5,SE,15.0,-,N/A,Rain,Light Rain,130,2012-10-11 14:20:00
3:50 PM,53,51,92,,,ESE,12.7,,,,,120,2012-10-11 14:50:00
3:50 PM,53.6,51.8,94,29.53,-9999.0,SE,11.5,-,N/A,Rain,Light Rain,130,2012-10-11 14:50:00
4:20 PM,53.6,53.6,100,29.50,-9999.0,ESE,13.8,-,N/A,Rain,Light Rain,120,2012-10-11 15:20:00
4:50 PM,53.6,53.6,100,29.50,3.7,SE,12.7,-,N/A,,Scattered Clouds,130,2012-10-11 15:50:00
5:20 PM,53.6,53.6,100,29.50,3.7,SE,12.7,-,N/A,,Scattered Clouds,130,2012-10-11 16:20:00
5:50 PM,53.6,53.6,100,29.50,4.3,SE,10.4,-,N/A,,Mostly Cloudy,130,2012-10-11 16:50:00
6:20 PM,53.6,53.6,100,29.47,3.7,ESE,10.4,-,N/A,,Mostly Cloudy,110,2012-10-11 17:20:00
6:50 PM,53,52,93,,,ESE,10.4,,,,,110,2012-10-11 17:50:00
6:50 PM,55.4,53.6,94,29.47,-9999.0,ESE,9.2,-,N/A,Rain,Light Rain,110,2012-10-11 17:50:00
7:20 PM,53.6,53.6,100,29.47,3.7,ESE,8.1,-,N/A,,Mostly Cloudy,120,2012-10-11 18:20:00
7:50 PM,53.6,53.6,100,29.47,4.3,ESE,8.1,-,N/A,,Scattered Clouds,110,2012-10-11 18:50:00
8:20 PM,53.6,53.6,100,29.47,5.6,East,6.9,-,N/A,,Mostly Cloudy,100,2012-10-11 19:20:00
8:50 PM,53.6,53.6,100,29.47,3.7,East,5.8,-,N/A,Rain,Rain,100,2012-10-11 19:50:00
9:20 PM,53.6,53.6,100,29.47,3.7,SE,2.3,-,N/A,Rain,Rain,140,2012-10-11 20:20:00
9:50 PM,53,52,97,,,ESE,4.6,,,,,110,2012-10-11 20:50:00